Location: Newark
(43.7333°N, 7.4000°E)
Time: 23:08:41
(UTC+00:00)

Envisat - Pass Details

Date: 25 September 2020
Orbit: 764 x 766 km, 98.1° (Epoch: 29 October)

Event Time Altitude Azimuth Distance (km) Brightness Sun altitude
Rises 18:04:41 0° 213° (SSW) 3,218 6.6 -8.6°
Reaches altitude 10° 18:08:00 10° 236° (SW) 2,298 6.3 -9.2°
Maximum altitude 18:10:52 15° 271° (W) 1,971 6.5 -9.7°
Drops below altitude 10° 18:13:44 10° 306° (NW) 2,307 6.6 -10.2°
Sets 18:17:05 0° 329° (NNW) 3,240 6.9 -10.8°
